Location: Wyoming Skies Observatory
(43.6910°N, 108.3105°W)
Time: 15:29:00
(UTC-07:00)

Daily predictions for brighter satellites

Satellite Brightness Start Highest point End
(mag) Time Altitude Azimuth Time Altitude Azimuth Time Altitude Azimuth
ATLAS 2AS CENTAUR R/B 3.2 17:04:00 10° NNW 17:12:00 59° NE 17:19:47 10° SE
Cosmos-2242 3.9 17:06:20 10° NNE 17:10:14 30° ENE 17:14:05 10° SE
SL-16 R/B 2.7 17:07:20 10° NNE 17:13:32 84° WNW 17:19:41 10° SSW
Cosmos 2227 Rocket 2.3 17:07:27 10° SSW 17:13:05 89° ESE 17:18:46 10° NNE
FALCON 9 R/B 3.5 17:10:12 10° SW 17:13:41 33° SSE 17:22:32 10° ESE
CZ-4 DEB 4.3 17:10:13 10° ESE 17:13:09 23° ENE 17:16:07 10° NNE
SJ-6B 3.4 17:10:26 10° SE 17:13:59 35° ENE 17:17:37 10° N
Lacrosse 4 Rocket 2.0 17:12:51 10° NNW 17:17:02 38° NE 17:21:06 10° ESE
CZ-4C R/B 3.5 17:14:17 10° NW 17:21:10 63° WSW 17:28:37 10° SSE
COSMO-SKYMED 1 4.3 17:14:31 10° NE 17:17:00 15° E 17:19:28 10° SE
Spot 2 Rocket 3.5 17:15:19 10° SSE 17:20:20 61° ENE 17:25:22 10° N
Cosmos 1814 Rocket 4.3 17:15:37 10° SSW 17:20:43 69° WNW 17:25:51 10° NNE
Cosmos 1603 4.4 17:15:46 10° N 17:20:39 30° NE 17:25:30 10° ESE
Geosat 4.0 17:18:04 10° SE 17:23:05 78° ENE 17:28:08 10° NNW
USA 234 3.8 17:19:56 10° E 17:25:55 40° NNE 17:31:54 10° NW
Cosmos 405 4.1 17:20:13 10° SSE 17:23:17 26° E 17:26:23 10° NE
Cosmos 2219 Rocket 3.2 17:20:46 10° NW 17:26:14 51° WSW 17:31:37 10° S
Cosmos 1763 Rocket 3.9 17:23:04 10° S 17:27:59 45° ESE 17:32:59 10° NNE
Cosmos 2082 4.2 17:24:11 10° SW 17:29:44 60° WNW 17:35:21 10° NNE
CZ-4 R/B 3.2 17:25:47 10° SSW 17:29:26 35° W 17:33:05 10° NNW
Lacrosse 5 3.2 17:29:12 10° W 17:33:39 30° NNW 17:38:06 10° NE
Tiangong 1 1.6 17:29:37 10° WSW 17:32:38 52° SSE 17:35:14 13° E
SL-8 Rocket 4.4 17:30:19 10° SSW 17:36:26 69° W 17:42:39 10° N
Cosmos 990 Rocket 3.9 17:31:00 10° NNW 17:36:10 86° ENE 17:41:19 10° SSE
Cosmos 2237 Rocket 3.3 17:33:25 10° NW 17:38:49 48° WSW 17:44:11 10° S
Cosmos 2297 Rocket 2.2 17:39:57 10° SSW 17:45:36 87° WNW 17:51:19 10° NNE
Cosmos 1339 Rocket 4.5 17:40:42 10° N 17:47:05 68° E 17:53:19 10° SSE
Cosmos 1437 3.6 17:41:01 10° NNW 17:44:30 59° W 17:47:56 10° S
Okean 3 Rocket 4.4 17:41:38 10° SSE 17:45:34 32° E 17:49:34 10° NNE
CZ-2C R/B 2.0 17:45:20 10° SE 17:48:15 31° ENE 17:51:10 10° N
Cosmos 1356 Rocket 3.7 17:45:55 10° NNW 17:50:08 74° W 17:54:24 10° S
Cosmos 2366 rocket 4.3 17:48:48 10° SSW 17:55:01 71° W 18:01:13 10° N
Cosmos 839 Rocket 4.1 17:51:45 10° SSW 17:58:25 61° ESE 18:03:22 16° NE
Resurs 1-3 3.6 17:54:39 10° SSE 17:58:58 61° ENE 18:03:18 10° N
deb Chang Zheng 4 3.7 17:54:50 10° NNE 17:59:21 88° WNW 18:03:51 10° SSW
Cosmos 1666 3.6 17:57:19 10° NNW 18:01:11 53° W 18:05:02 10° S
NOSS 3-1 (A) 4.4 17:58:07 10° NW 18:05:36 70° WSW 18:13:39 10° SSE
H-2A R/B 3.0 17:58:22 10° S 18:02:48 53° W 18:07:15 10° NNW
Cosmos 2227 4.5 17:59:08 10° S 18:04:30 46° ESE 18:08:12 19° NE
ERS-1 Rocket 4.2 18:04:16 20° NE 18:04:16 20° NE 18:07:10 10° NNE
Cosmos 1125 Rocket 3.7 18:00:23 10° NNW 18:05:43 80° WSW 18:11:00 10° SSE
Aureole 2 Rocket 4.1 18:00:59 10° N 18:05:27 30° ENE 18:08:11 19° ESE
SKYMED 2 3.8 18:01:55 15° NNE 18:05:21 46° E 18:09:30 10° S
Cosmos 1271 Rocket 2.6 18:03:27 10° S 18:07:22 74° E 18:10:42 14° NNE
Cosmos 1766 4.0 18:03:31 10° NNE 18:07:08 30° ENE 18:10:43 10° SE
OPS 6432 4.2 18:03:49 10° SSW 18:07:13 75° SE 18:08:35 32° NE
SL-24 R/B - RUBIN 2 3.6 18:04:25 10° NNW 18:08:58 74° NE 18:13:55 10° SE
SL-16 R/B 3.0 18:05:27 10° NNW 18:10:58 55° WSW 18:16:27 10° S
PAYLOAD A 4.2 18:06:01 10° SE 18:10:28 40° ENE 18:15:06 10° N
Resurs 01 Rocket 2.4 18:08:52 10° S 18:13:11 54° W 18:17:32 10° NNW
Cosmos 1535 Rocket 4.4 18:09:53 10° S 18:15:56 65° E 18:21:59 10° NNE
SAR-Lupe-2 3.5 18:12:46 10° SSE 18:16:15 57° ENE 18:19:46 10° N
Cosmos 1934 Rocket 4.2 18:14:40 10° SSE 18:20:41 49° E 18:26:45 10° NNE
Cosmos 1943 3.9 18:17:00 10° N 18:22:01 31° NE 18:22:35 31° ENE
CZ-2C R/B 2.9 18:21:52 33° E 18:22:30 35° ENE 18:26:54 10° N
Abrixas rocket 3.0 18:18:28 10° W 18:21:57 48° NNW 18:22:42 40° NNE
ISS -1.5 18:21:29 10° NW 18:23:44 20° N 18:23:44 20° N
Cosmos 1842 Rocket 4.0 18:22:47 10° NNW 18:27:14 66° W 18:31:39 10° S
SL-24 R/B 4.0 18:23:09 10° NW 18:26:18 88° SW 18:26:49 59° SSE
Cosmos 841 Rocket 4.3 18:25:30 10° SW 18:30:27 48° WNW 18:35:25 10° N
Cosmos 372 Rocket 3.9 18:26:13 10° NNW 18:31:27 63° ENE 18:36:37 10° SSE
CZ-4B DEB 3.2 18:33:38 10° S 18:37:21 80° WSW 18:41:06 10° NNW
NOAA 12 4.0 18:34:44 10° SSE 18:39:52 60° ENE 18:45:01 10° N
MOZ.5/SAFIR/RUBIN 5/SL-8 4.2 18:36:02 10° N 18:40:38 60° WNW 18:45:11 10° SSW
Cosmos 1408 Rocket 3.7 18:37:36 10° S 18:41:28 51° ESE 18:41:28 51° ESE
SJ-12 4.5 18:37:51 10° S 18:41:58 60° W 18:46:07 10° NNW
Cosmos 1821 Rocket 3.8 18:41:05 10° S 18:47:11 81° E 18:53:25 10° N
UNK 4.5 18:46:08 45° E 18:46:26 46° E 18:52:02 10° S
Cosmos 2239 Rocket 4.4 18:42:27 10° S 18:48:35 86° W 18:54:46 10° N
COSMO-SKYMED 1 3.3 18:50:35 19° N 18:53:28 53° WNW 18:57:41 10° SSW
Lacrosse 4 Rocket 3.9 18:52:08 10° NW 18:55:40 24° WSW 18:59:07 10° SSW
ATLAS 2AS CENTAUR R/B 4.4 18:55:30 10° NW 19:02:48 39° WSW 19:09:51 10° S
Cosmos 1461 3.8 18:57:09 10° NNW 19:00:01 41° NNW 19:00:01 41° NNW
USA 234 3.2 19:05:40 37° SE 19:08:33 85° SW 19:15:07 10° NW
CZ-4B R/B 4.0 19:08:50 44° S 19:08:50 44° S 19:12:05 10° S
Tiangong 1 3.6 19:05:57 10° W 19:07:15 22° W 19:07:15 22° W
ATLAS CENTAUR R/B 4.3 19:10:40 10° WNW 19:14:42 30° N 19:16:17 28° NNE
Lacrosse 5 3.9 19:14:30 10° NW 19:17:19 17° NNW 19:17:19 17° NNW
Cosmos 540 Rocket 4.3 19:31:11 10° SW 19:36:04 46° WNW 19:36:08 46° WNW
ATLAS 5 CENTAUR R/B 3.8 19:42:59 10° SSW 19:44:42 22° SSW 19:44:42 22° SSW
CZ-2C R/B 4.3 19:56:50 10° SSW 20:01:15 27° W 20:04:56 10° NW
BREEZE-M DEB (TANK) 4.1 20:01:04 10° WNW 20:04:41 67° NW 20:04:41 67° NW
